Location: Sagn�
(15.2046°N, 12.7898°W)
Time: 12:41:49
(UTC+00:00)

IRIDIUM 114 - Pass Details

Date: 08 May 2021
Orbit: 776 x 779 km, 86.4° (Epoch: 14 June)

Event Time Altitude Azimuth Distance (km) Brightness Sun altitude
Rises 19:30:15 0° 179° (S) 3,249 7.3 -5.3°
Reaches altitude 10° 19:32:35 10° 178° (S) 2,323 6.6 -5.8°
Maximum altitude 19:37:48 86° 90° (E) 783 4.3 -7.0°
Drops below altitude 10° 19:43:01 10° 1° (N) 2,326 7.1 -8.2°
Sets 19:45:21 0° 1° (N) 3,255 7.8 -8.7°
